Location: City of Clear Lake
(43.1347°N, 93.3740°W)
Time: 02:06:53
(UTC+00:00)

BlueWalker 3 - Visible Passes

Search period start: 13 October 2024 00:00
Search period end: 23 October 2024 00:00
Orbit: 472 x 484 km, 53.2° (Epoch: 12 October)

Date Brightness Start Highest point End Pass type
(mag) Time Alt. Az. Time Alt. Az. Time Alt. Az.
13 Oct 3.9 10:49:57 16° NNW 10:50:54 17° N 10:53:27 10° NE visible
14 Oct 4.0 10:22:38 17° N 10:22:38 17° N 10:24:56 10° NE visible
15 Oct 4.5 09:55:17 15° NNE 09:55:17 15° NNE 09:56:24 10° NE visible
15 Oct 3.9 11:29:56 10° NW 11:32:46 20° NNE 11:35:37 10° ENE visible
16 Oct 3.9 11:02:06 13° NNW 11:04:10 20° NNE 11:06:57 10° ENE visible
17 Oct 3.9 10:34:45 18° N 10:35:32 19° N 10:38:15 10° ENE visible
18 Oct 4.2 10:07:24 18° NNE 10:07:24 18° NNE 10:09:32 10° NE visible
18 Oct 2.7 11:41:56 10° NW 11:45:31 46° NNE 11:49:05 10° ESE visible
19 Oct 4.9 09:40:05 13° NE 09:40:05 13° NE 09:40:47 10° NE visible
19 Oct 2.8 11:14:16 16° NW 11:16:51 42° NNE 11:20:22 10° E visible
20 Oct 3.0 10:46:59 29° NNW 10:48:09 38° NNE 10:51:38 10° E visible
21 Oct 3.2 10:19:45 34° NE 10:19:45 34° NE 10:22:50 10° E visible
21 Oct 2.4 11:53:56 10° WNW 11:57:25 39° SW 12:00:52 10° SSE visible
22 Oct 4.5 09:52:35 20° ENE 09:52:35 20° ENE 09:54:01 10° E visible
22 Oct 2.2 11:26:46 23° WNW 11:28:42 45° SW 11:32:13 10° SSE visible
